Regional Weather Roundup
Issued by NWS

Home | Current Version | Previous Version | Graphics & Text | Print | Product List | Glossary On
Versions: 1 2 3 4 5 6 7 8 9 10 11 12 13 14 15 16 17 18 19 20 21 22 23 24 25 26 27 28 29 30 31 32 33 34 35 36 37 38 39 40 41 42 43 44 45 46 47 48 49 50
000
ASUS45 KBOU 262207
RWRCO

WEATHER ROUNDUP FOR COLORADO
NATIONAL WEATHER SERVICE DENVER/BOULDER CO
400 PM MDT WED APR 26 2017

NOTE: "FAIR" INDICATES FEW OR NO CLOUDS BELOW 12000 FEET WITH NO
SIGNIFICANT WEATHER AND/OR OBSTRUCTIONS TO VISIBILITY.

COZ001>005-013-030-031-262300-
...NORTHWEST COLORADO...

CITY           SKY/WX    TMP DP  RH WIND       PRES   REMARKS
CRAIG          CLOUDY    49  26  41 W12       29.77F
HAYDEN         FAIR      41  28  60 E5        29.78F
MEEKER         PTSUNNY   49  31  49 SW13G24   29.79F
MOUNT WERNER   NOT AVBL
STEAMBOAT SPGS CLOUDY    38  34  83 E8        29.80F
WALDEN           N/A     39  25  56 W13       29.80F
$$

COZ006>008-011-262300-
...WEST CENTRAL VALLEYS...

CITY           SKY/WX    TMP DP  RH WIND       PRES   REMARKS
GRAND JUNCTION PTSUNNY   61  23  23 W10       29.78F
MONTROSE       PTSUNNY   55  25  31 NW7       29.82F
EAGLE          PTSUNNY   46  27  46 SW21G30   29.82F
RIFLE          CLOUDY    52  32  46 N9        29.80F
DELTA          FAIR      60  25  26 SW12      29.80F
NUCLA          FAIR      59  12  15 W15G25    29.86F
$$

COZ017>023-064>068-262300-
...SOUTHWEST COLORADO...

CITY           SKY/WX    TMP DP  RH WIND       PRES   REMARKS
DURANGO        FAIR      55  15  20 W13G28    29.83F
CORTEZ         PTSUNNY   57  17  21 SW12G20   29.84F
PAGOSA SPRINGS CLOUDY    52  15  23 SW16G22   29.83F
TELLURIDE      CLOUDY    41  20  43 NW8G21    29.92F
WOLF CREEK PAS LGT SNOW  23  23 100 S16G24    29.97F VSB 3/4 WCI  10
$$

COZ009-010-012-014-032>034-037-058>063-262300-
...CENTRAL COLORADO...

CITY           SKY/WX    TMP DP  RH WIND       PRES   REMARKS
ASPEN          CLOUDY    42  29  59 N14       29.82F
BUENA VISTA    PTSUNNY   50  14  23 W20G26    29.78S
COPPER MTN     SNOW      27  21  80 NW9G16    29.87F VSB 1/2 WCI  17
BERTHOUD PASS  CLOUDY    18   7  62 W25G37    29.83F WCI  -1
COTTONWOOD PAS CLOUDY    41  14  33 NW6G16    29.82F
GUNNISON       FAIR      48  21  34 W14G28    29.83F
KREMMLING      LGT RAIN  43  32  65 W12       29.83S
LEADVILLE      LGT SNOW  31  23  72 W18G30    29.83R WCI  19
MONARCH PASS   CLOUDY    25  18  74 W40G49    29.98F WCI   6
SALIDA         FAIR      53  15  22 W24G33    29.85F
SUNLIGHT       LGT SNOW  28  25  86 SW8G21    29.92S WCI  20
WILKERSON PASS CLOUDY    34  10  37 W6G21     29.87F WCI  29
$$

COZ069>075-262300-
...SAN LUIS VALLEY/SANGRE DE CRISTO MOUNTAINS...

CITY           SKY/WX    TMP DP  RH WIND       PRES   REMARKS
ALAMOSA        FAIR      50  26  39 VRB3      29.78F
LA VETA PASS   LGT SNOW  36  30  80 SW14G26   29.96F
SAGUACHE       FAIR      52  16  24 NW26G36   29.78F
$$

COZ035-036-038>040-262300-
...NORTHERN COLORADO FRONT RANGE...

CITY           SKY/WX    TMP DP  RH WIND       PRES   REMARKS
DENVER INTL AP PTSUNNY   58  21  24 W8        29.68F
DMNS CITY PARK   N/A     58  19  22 NW14      29.67F
AURORA         PTSUNNY   55  19  24 W7        29.70F
FRONT RANGE AP NOT AVBL
ERIE MUNI ARPT CLOUDY    61  20  20 NW3       29.67F
BOULDER MUN AP FAIR      61  21  21 W10       29.67F
CENTENNIAL     PTSUNNY   55  19  24 N8        29.70F
BROOMFIELD     PTSUNNY   59  21  23 W21G30    29.70
FORT COLLINS   FAIR      56  23  27 VRB6G17   29.69F
LONGMONT       CLOUDY    61  23  22 NW3       29.68F
$$

COZ041-046-047-076>085-087-088-262300-
...PIKES PEAK/PALMER DIVIDE AND SOUTHERN FOOTHILLS...

CITY           SKY/WX    TMP DP  RH WIND       PRES   REMARKS
COLO. SPRINGS  PTSUNNY   50  32  50 S14       29.75F
A. F. ACADEMY  CLOUDY    48  31  50 S13       29.74F
SCHRIEVER AFB  FAIR      50  29  44 S12G20    29.75F
ELLICOTT       FAIR     N/A N/A N/A W10G16    29.74F
FALCON         PTSUNNY   48  28  46 S13       29.76F
FORT CARSON    FAIR      51  32  47 E6        29.72F
LIMON          FAIR      55  27  34 NW7       29.71F
MONUMENT HILL  CLOUDY    45  27  49 SW5       29.77S
TRINIDAD       FAIR      56  33  42 S8        29.74F
$$

COZ042>045-048>051-090-091-262300-
...NORTHEAST COLORADO...

CITY           SKY/WX    TMP DP  RH WIND       PRES   REMARKS
GREELEY ARPT   FAIR      61  26  26 NW10G18   29.68F
AKRON          FAIR      53  32  44 N17       29.71F
BURLINGTON     NOT AVBL
WRAY           NOT AVBL
STERLING       CLOUDY    54  34  47 SW6       29.69F
HOLYOKE        FAIR      61  32  33 CALM      29.70F
FORT MORGAN    PTSUNNY   55  33  43 N15G23    29.72S
$$

COZ086-089-092>099-262300-
...SOUTHEAST COLORADO...

CITY           SKY/WX    TMP DP  RH WIND       PRES   REMARKS
PUEBLO         FAIR      60  29  30 SE9       29.70F
LA JUNTA       FAIR      60  31  33 CALM      29.73F
LAMAR          FAIR      63  27  25 N8G20     29.69F
SPRINGFIELD      N/A     59  31  34 NW12G21   29.75F
$$



USA.gov is the U.S. government's official web portal to all federal, state and local government web resources and services.